This is the latest recevied weather packets stored in our database for station/object DC0VZ-6. If no packets are shown the sender has not sent any weather packets the latest 10 day(s).
| Time | Temp. | Humidity | Pressure | Rain* | Wind** | Luminosity | Snow |
|---|---|---|---|---|---|---|---|
| 1777724173 | 29.44° C | 5% | 988.9 hPa | 0 mm | - | - | - |
| 1777723572 | 28.33° C | 5% | 988.9 hPa | 0 mm | - | - | - |
| 1777722972 | 28.33° C | 11% | 989.1 hPa | 0 mm | - | - | - |
| 1777722372 | 28.33° C | 11% | 989.1 hPa | 0 mm | - | - | - |
| 1777721772 | 28.33° C | 11% | 989.4 hPa | 0 mm | - | - | - |
| 1777721172 | 28.33° C | 11% | 989.4 hPa | 0 mm | - | - | - |
| 1777720572 | 27.78° C | 12% | 989.7 hPa | 0 mm | - | - | - |
| 1777719972 | 27.78° C | 12% | 989.7 hPa | 0 mm | - | - | - |
| 1777719372 | 27.78° C | 12% | 989.6 hPa | 0 mm | - | - | - |
| 1777718772 | 27.22° C | 12% | 989.6 hPa | 0 mm | - | - | - |
| 1777718172 | 27.78° C | 12% | 989.6 hPa | 0 mm | - | - | - |
| 1777717572 | 26.67° C | 12% | 989.6 hPa | 0 mm | - | - | - |
| 1777716972 | 26.67° C | 12% | 989.7 hPa | 0 mm | - | - | - |
| 1777716371 | 27.22° C | 14% | 989.7 hPa | 0 mm | - | - | - |
| 1777715771 | 26.67° C | 15% | 989.7 hPa | 0 mm | - | - | - |
| 1777715171 | 26.67° C | 15% | 989.7 hPa | 0 mm | - | - | - |
| 1777714573 | 25.56° C | 14% | 990.2 hPa | 0 mm | - | - | - |
| 1777713971 | 25.56° C | 17% | 990.2 hPa | 0 mm | - | - | - |
| 1777713371 | 25.56° C | 20% | 990.2 hPa | 0 mm | - | - | - |
| 1777712771 | 24.44° C | 20% | 990.2 hPa | 0 mm | - | - | - |
| 1777712171 | 23.33° C | 21% | 990.4 hPa | 0 mm | - | - | - |
| 1777711571 | 22.78° C | 23% | 990.4 hPa | 0 mm | - | - | - |
| 1777710971 | 21.67° C | 24% | 990.6 hPa | 0 mm | - | - | - |
| 1777710371 | 21.67° C | 26% | 990.6 hPa | 0 mm | - | - | - |
| 1777709771 | 21.67° C | 28% | 990.8 hPa | 0 mm | - | - | - |
* Rain latest hour (hover to see other rain measurements)
** Current wind speed in m/s (hover to see current wind gust speed)